[[{"header":{"parameterUnit":"m.s-1","parameterCategory":1,"la1":30.2991,"la2":30.254,"lo1":-89.0895,"lo2":-89.0444,"dy":0.0017,"dx":0.0017,"nx":28,"ny":28,"refTime":"2024-03-28T21:00:00:Z","depth":0,"parameterNumber":2,"parameterNumberName":"U-component_of_WINDS"},"data":[0,0,0,0,0,0,0,0,0,0,0,0,0,0,0,0,0,0,0,0,0,0,0,0,0,0,0,0,0,0,0,0,0,0,0,0,0,0,0,0,0,0,0,0,0,0,0,0,0,0,0,0,0,0,0,0,0,0,-0.3892,-0.3891,0,-0.3747,-0.3745,-0.3744,-0.3649,-0.3648,-0.3648,-0.3647,-0.3495,-0.3491,-0.3488,0,0,0,0,0,0,0,0,0,0,0,0,0,-0.4085,-0.4082,-0.3892,-0.389,-0.3889,-0.3747,-0.3745,-0.3743,-0.3649,-0.3648,-0.3648,-0.3647,-0.3496,-0.3492,-0.3487,0,0,0,0,0,0,0,0,0,0,0,0,0,-0.3976,-0.4081,-0.3893,-0.3825,-0.3817,-0.3748,-0.3745,-0.3743,-0.3649,-0.3648,-0.3647,-0.3647,-0.3497,-0.3492,-0.3487,-0.3472,0,0,-0.3471,-0.3468,0,0,0,0,0,0,0,0,-0.3983,-0.3969,-0.3836,-0.3829,-0.3821,-0.3715,-0.3757,-0.3652,-0.3649,-0.3713,-0.3647,-0.3646,-0.3568,-0.3557,-0.3532,-0.3465,-0.3458,-0.347,-0.3467,-0.3465,-0.3463,0,0,0,0,0,0,0,-0.399,-0.3975,-0.3835,-0.3835,-0.3825,-0.38,-0.3784,-0.3737,-0.3647,-0.3707,-0.37,-0.3684,-0.3564,-0.3537,-0.3528,-0.3456,-0.347,-0.3466,-0.3462,-0.346,-0.337,-0.337,0,0,0,0,0,0,-0.4009,-0.3982,-0.3839,-0.383,-0.3901,-0.3798,-0.3779,-0.375,-0.3648,-0.3631,-0.3685,-0.368,-0.3547,-0.3534,-0.3522,-0.3498,-0.3465,-0.346,-0.3457,-0.3369,-0.337,-0.3371,0,0,0,0,0,0,-0.4014,-0.3997,-0.3845,-0.3904,-0.3883,-0.3795,-0.3763,-0.3748,-0.3721,-0.3631,-0.3614,-0.3675,-0.3545,-0.3529,-0.3485,-0.3491,-0.3457,-0.3453,-0.3368,-0.3369,-0.337,-0.345,0,0,0,0,0,0,-0.4019,-0.3999,-0.3994,-0.3905,-0.388,-0.3812,-0.3763,-0.3745,-0.3712,-0.3705,-0.3617,-0.3601,-0.3543,-0.3494,-0.348,-0.3483,-0.3449,-0.3367,-0.3369,-0.337,-0.3446,-0.3454,-0.346,0,0,0,0,0,-0.4027,-0.4021,-0.3994,-0.3977,-0.3871,-0.3813,-0.3799,-0.3734,-0.3713,-0.3706,-0.3649,-0.3604,-0.3493,-0.349,-0.3474,-0.3476,-0.3366,-0.3368,-0.337,-0.3443,-0.3452,-0.346,0,0,0,0,0,0,-0.4111,-0.4008,-0.3977,-0.3942,-0.3888,-0.3797,-0.3786,-0.3745,-0.3694,-0.3689,-0.3609,-0.359,-0.3554,-0.351,-0.3509,-0.3456,-0.3424,-0.3423,-0.3486,-0.3493,-0.35,-0.3511,-0.3444,0,0,0,0,0,-0.4126,-0.4089,-0.4,-0.3978,-0.3952,-0.3875,-0.3847,-0.3801,-0.3741,-0.3716,-0.3655,-0.3597,-0.3549,-0.3519,-0.347,-0.344,-0.3419,-0.3433,-0.344,-0.3446,-0.3445,-0.3426,-0.3431,-0.3376,-0.3376,-0.3376,0,0,-0.4156,-0.4095,-0.4076,-0.3994,-0.3946,-0.3907,-0.3855,-0.3817,-0.3787,-0.371,-0.3665,-0.3619,-0.3548,-0.3512,-0.3492,-0.3474,-0.3456,-0.3448,-0.3453,-0.3449,-0.3428,-0.3433,-0.3438,-0.3377,-0.3377,-0.3377,0,0,-0.4191,-0.4142,-0.4118,-0.4071,-0.4,-0.3948,-0.3943,-0.3859,-0.3826,-0.378,-0.3721,-0.3684,-0.3603,-0.3555,-0.352,-0.3539,-0.3495,-0.3525,-0.356,-0.3542,-0.3546,-0.355,-0.3556,-0.3559,-0.3525,-0.3525,-0.3525,0,-0.4237,-0.4178,-0.4111,-0.4076,-0.4041,-0.3971,-0.3946,-0.3904,-0.382,-0.3797,-0.3778,-0.3675,-0.3623,-0.3574,-0.3579,-0.3553,-0.3543,-0.3534,-0.3551,-0.3554,-0.3556,-0.3561,-0.3563,-0.3529,-0.3528,-0.3528,-0.3528,0,-0.4238,-0.4198,-0.4187,-0.4109,-0.4073,-0.4044,-0.3971,-0.3943,-0.3901,-0.3851,-0.3805,-0.374,-0.3677,-0.3662,-0.362,-0.3607,-0.3598,-0.3567,-0.3533,-0.3567,-0.357,-0.3571,-0.3535,-0.3533,-0.3532,-0.3531,0,0,-0.4321,-0.4207,-0.4204,-0.4168,-0.4085,-0.4052,-0.4019,-0.3958,-0.3935,-0.388,-0.3849,-0.3783,-0.3754,-0.3714,-0.3666,-0.3651,-0.3669,-0.3621,-0.3618,-0.3632,-0.365,-0.3675,-0.3678,-0.3641,-0.3641,-0.3641,-0.3656,0,-0.4343,-0.4281,-0.422,-0.418,-0.4142,-0.4075,-0.4046,-0.3992,-0.3945,-0.3905,-0.3852,-0.3806,-0.3771,-0.3746,-0.3728,-0.3671,-0.3672,-0.3669,-0.3611,-0.3609,-0.363,-0.3679,-0.3704,-0.3722,-0.3657,-0.3657,-0.3657,0,-0.436,-0.4309,-0.4266,-0.4186,-0.4168,-0.4143,-0.4083,-0.4046,-0.3982,-0.3949,-0.3906,-0.3856,-0.3817,-0.3789,-0.3734,-0.3734,-0.3706,-0.3674,-0.3673,-0.3665,-0.3635,-0.3672,-0.3726,-0.3729,-0.3659,-0.3659,-0.3659,0,-0.4425,-0.4345,-0.4309,-0.428,-0.4186,-0.4171,-0.4131,-0.4066,-0.4034,-0.3981,-0.3959,-0.3902,-0.387,-0.3827,-0.3762,-0.3748,-0.3714,-0.368,-0.3684,-0.3686,-0.3679,-0.368,-0.373,-0.3663,-0.3663,-0.3663,-0.3663,0,-0.4455,-0.4431,-0.4337,-0.4314,-0.4285,-0.4215,-0.4188,-0.4142,-0.4085,-0.4052,-0.399,-0.396,-0.3878,-0.3837,-0.3787,-0.3749,-0.3735,-0.3706,-0.3693,-0.3711,-0.3715,-0.3691,-0.3688,-0.3663,-0.3663,-0.3663,-0.3663,0,-0.4522,-0.4458,-0.4414,-0.433,-0.4308,-0.429,-0.4217,-0.4192,-0.4142,-0.4101,-0.4087,-0.4008,-0.3958,-0.389,-0.3818,-0.3784,-0.3752,-0.3731,-0.3774,-0.3766,-0.3773,-0.3774,-0.3809,-0.381,-0.3744,-0.3745,-0.3745,0,-0.4545,-0.4525,-0.4439,-0.4413,-0.4376,-0.4335,-0.4302,-0.4232,-0.42,-0.4126,-0.4111,-0.4056,-0.4008,-0.3931,-0.3866,-0.3811,-0.3788,-0.3804,-0.3779,-0.3798,-0.3787,-0.3789,-0.3787,-0.381,-0.3811,-0.3812,-0.3813,0,-0.4593,-0.4563,-0.4518,-0.4463,-0.4426,-0.4379,-0.4328,-0.431,-0.4229,-0.4197,-0.4145,-0.4109,-0.4036,-0.3982,-0.3918,-0.3876,-0.3831,-0.3821,-0.3819,-0.3837,-0.3863,-0.3849,-0.379,-0.3821,-0.382,-0.3819,-0.3819,-0.3818,-0.4638,-0.4618,-0.4554,-0.4507,-0.4462,-0.4417,-0.439,-0.4337,-0.4293,-0.4229,-0.4191,-0.4141,-0.4077,-0.3988,-0.3947,-0.3907,-0.3889,-0.3886,-0.3885,-0.3885,-0.3891,-0.3871,-0.3895,-0.3894,-0.3894,-0.3894,-0.3893,0,-0.4683,-0.4639,-0.4596,-0.4529,-0.4491,-0.4454,-0.4396,-0.4367,-0.4325,-0.427,-0.4225,-0.4166,-0.4114,-0.4046,-0.3989,-0.3969,-0.3947,-0.3956,-0.3957,-0.3947,-0.391,-0.3918,-0.3975,-0.3975,-0.3975,-0.3975,-0.3975,-0.3975,-0.4702,-0.4665,-0.4627,-0.4567,-0.4523,-0.4475,-0.4445,-0.4403,-0.4359,-0.4296,-0.4253,-0.421,-0.4149,-0.4087,-0.4038,-0.4019,-0.4,-0.4016,-0.3991,-0.3957,-0.395,-0.3943,-0.395,-0.4013,-0.4013,-0.4031,-0.4031,-0.4031]},{"header":{"parameterUnit":"m.s-1","parameterCategory":1,"la1":30.2991,"la2":30.254,"lo1":-89.0895,"lo2":-89.0444,"dy":0.0017,"dx":0.0017,"nx":28,"ny":28,"refTime":"2024-03-28T21:00:00:Z","depth":0,"parameterNumber":3,"parameterNumberName":"V-component_of_WINDS"},"data":[0,0,0,0,0,0,0,0,0,0,0,0,0,0,0,0,0,0,0,0,0,0,0,0,0,0,0,0,0,0,0,0,0,0,0,0,0,0,0,0,0,0,0,0,0,0,0,0,0,0,0,0,0,0,0,0,0,0,3.4377,3.4377,0,3.4374,3.4374,3.4374,3.4408,3.4409,3.441,3.4411,3.4404,3.4403,3.4401,0,0,0,0,0,0,0,0,0,0,0,0,0,3.4409,3.4409,3.4377,3.4377,3.4377,3.4374,3.4374,3.4374,3.4408,3.4409,3.441,3.4411,3.4404,3.4403,3.4401,0,0,0,0,0,0,0,0,0,0,0,0,0,3.4399,3.4408,3.4377,3.4394,3.4395,3.4374,3.4374,3.4374,3.4407,3.4409,3.441,3.4412,3.4404,3.4403,3.4401,3.4363,0,0,3.4396,3.4396,0,0,0,0,0,0,0,0,3.44,3.4398,3.4391,3.4393,3.4394,3.4393,3.4383,3.437,3.4407,3.4403,3.4411,3.4412,3.4399,3.4397,3.4394,3.4362,3.4362,3.4396,3.4395,3.4394,3.4394,0,0,0,0,0,0,0,3.4401,3.4399,3.4376,3.4391,3.4393,3.44,3.44,3.438,3.4392,3.4403,3.4406,3.4405,3.44,3.4395,3.4394,3.4362,3.4396,3.4395,3.4394,3.4393,3.4298,3.4296,0,0,0,0,0,0,3.44,3.4399,3.4376,3.4376,3.4401,3.4398,3.4399,3.4392,3.4393,3.4394,3.4404,3.4407,3.4397,3.4396,3.4394,3.4348,3.4394,3.4393,3.4392,3.4299,3.4297,3.4296,0,0,0,0,0,0,3.44,3.4397,3.4376,3.4388,3.4386,3.4396,3.4388,3.4391,3.4386,3.4393,3.4395,3.4397,3.4398,3.4396,3.437,3.4348,3.4392,3.4391,3.4301,3.4299,3.4296,3.4256,0,0,0,0,0,0,3.4401,3.4397,3.4383,3.4387,3.4385,3.4353,3.4387,3.439,3.4384,3.4388,3.4388,3.4389,3.4399,3.4372,3.4368,3.4347,3.4389,3.4303,3.43,3.4297,3.426,3.4253,3.4247,0,0,0,0,0,3.4402,3.4372,3.4383,3.438,3.4368,3.4352,3.4351,3.4364,3.4382,3.4368,3.4372,3.4389,3.4351,3.4369,3.4365,3.4343,3.4304,3.4301,3.4297,3.4262,3.4254,3.4247,0,0,0,0,0,0,3.4364,3.4372,3.4385,3.4355,3.4353,3.4358,3.434,3.4355,3.4346,3.435,3.4366,3.4366,3.4337,3.4337,3.4357,3.4305,3.4331,3.4326,3.4306,3.4298,3.4292,3.4292,3.4388,0,0,0,0,0,3.4352,3.4339,3.4347,3.432,3.4319,3.433,3.4323,3.4334,3.4331,3.433,3.4333,3.4329,3.4316,3.4307,3.4296,3.426,3.426,3.4242,3.4236,3.4231,3.4227,3.4207,3.4199,3.4284,3.4284,3.4284,0,0,3.4327,3.4331,3.4321,3.4313,3.4312,3.4297,3.4328,3.4312,3.43,3.4327,3.4303,3.4305,3.4301,3.427,3.4257,3.427,3.4203,3.4226,3.4222,3.4221,3.4202,3.4194,3.4187,3.4282,3.4282,3.4282,0,0,3.4275,3.4276,3.4254,3.4253,3.4252,3.426,3.4254,3.4257,3.4259,3.4236,3.4255,3.4242,3.422,3.4216,3.4212,3.4157,3.4172,3.4153,3.412,3.4101,3.4094,3.4088,3.4068,3.4061,3.4149,3.4149,3.4149,0,3.4244,3.4224,3.424,3.4222,3.4217,3.4242,3.4218,3.4216,3.4211,3.4206,3.4222,3.4194,3.4194,3.4162,3.4148,3.4144,3.4137,3.4153,3.4094,3.4088,3.4083,3.4064,3.4056,3.4147,3.4147,3.4147,3.4147,0,3.4185,3.4171,3.4152,3.4148,3.4141,3.412,3.4132,3.4123,3.4134,3.414,3.4115,3.4115,3.4104,3.4097,3.4108,3.4066,3.4075,3.4092,3.4118,3.4072,3.4054,3.4047,3.4143,3.4144,3.4145,3.4145,0,0,3.4108,3.4113,3.4106,3.4104,3.4105,3.4094,3.4073,3.4064,3.4055,3.4051,3.4033,3.4014,3.403,3.4024,3.4034,3.4017,3.3973,3.4036,3.4036,3.4024,3.3927,3.3914,3.3905,3.3984,3.3982,3.3981,3.3927,0,3.4056,3.4023,3.4037,3.4003,3.3989,3.4012,3.3994,3.3992,3.3997,3.3985,3.3989,3.3975,3.3997,3.3994,3.3978,3.3982,3.3954,3.3986,3.3966,3.3965,3.3966,3.3896,3.3882,3.3831,3.392,3.3919,3.3918,0,3.3991,3.3985,3.3949,3.3952,3.3947,3.3931,3.3923,3.3912,3.3909,3.3914,3.3908,3.3921,3.39,3.3927,3.3898,3.392,3.3912,3.3912,3.3911,3.3909,3.3938,3.3891,3.3815,3.3807,3.3908,3.3908,3.3909,0,3.3938,3.392,3.3897,3.3894,3.3897,3.3885,3.3886,3.3885,3.3878,3.3871,3.3866,3.3856,3.385,3.3841,3.3851,3.387,3.382,3.3847,3.3821,3.3821,3.3809,3.381,3.373,3.3806,3.3806,3.3806,3.3806,0,3.3878,3.3855,3.3873,3.3858,3.3832,3.3848,3.3822,3.3825,3.3824,3.3809,3.3828,3.3813,3.3828,3.3814,3.3822,3.3796,3.3793,3.3795,3.3797,3.3793,3.3793,3.3788,3.3791,3.3804,3.3804,3.3805,3.3805,0,3.3813,3.3824,3.38,3.3805,3.3806,3.3786,3.379,3.3776,3.3782,3.3763,3.3759,3.3768,3.3753,3.3763,3.3747,3.3752,3.3718,3.3725,3.3719,3.3721,3.3694,3.3696,3.3607,3.3596,3.368,3.3679,3.3678,0,3.3774,3.3757,3.376,3.3753,3.3752,3.3739,3.3732,3.3747,3.3739,3.3735,3.3721,3.3708,3.3698,3.3672,3.3676,3.3664,3.3671,3.3641,3.3669,3.3665,3.3669,3.367,3.3668,3.3635,3.3634,3.3633,3.3632,0,3.3703,3.3709,3.37,3.3692,3.3683,3.3677,3.3673,3.3665,3.368,3.3669,3.3655,3.3647,3.3632,3.3618,3.3608,3.3607,3.3621,3.3624,3.3617,3.3612,3.3609,3.3609,3.3702,3.3625,3.3626,3.3627,3.3627,3.3627,3.3649,3.3635,3.3635,3.3624,3.3622,3.3617,3.3604,3.3609,3.3597,3.3587,3.3596,3.3578,3.3575,3.3563,3.356,3.3546,3.3558,3.3548,3.3546,3.3543,3.3539,3.3612,3.3544,3.3544,3.3544,3.3545,3.3545,0,3.3579,3.358,3.3569,3.3563,3.3553,3.357,3.3565,3.3556,3.354,3.3537,3.3527,3.351,3.3497,3.35,3.3488,3.3475,3.3481,3.3471,3.3472,3.3471,3.3529,3.3536,3.3466,3.3466,3.3466,3.3466,3.3466,3.3466,3.3541,3.3517,3.3524,3.3499,3.35,3.3484,3.348,3.3475,3.3473,3.3453,3.3442,3.3445,3.3444,3.3432,3.342,3.3421,3.3415,3.3402,3.3406,3.3459,3.3467,3.3475,3.3481,3.3401,3.3401,3.3349,3.3349,3.3348]}]]